• In Netherlands
  • List of Countries
  • For 7 days
  • Water Temperature
  • Satellite Maps
  • Weather Map
  • Weather Widgets
  • user-avatar
    Login

    Hourly Weather La Massana

    Today, 23 July, Sunday

    Time Temperature Precipitation Wind Pressure Humidity
    00:00 +11°C° 0 mm 1 mps 614 mmHg 92%
    01:00 +11°C° 0 mm 1 mps 614 mmHg 92%
    02:00 +11°C° 0 mm 1 mps 614 mmHg 93%
    03:00 +11°C° 0 mm 1 mps 615 mmHg 93%
    04:00 +11°C° 0 mm 1 mps 615 mmHg 92%
    05:00 +12°C° 0 mm 1 mps 615 mmHg 91%
    06:00 +12°C° 0 mm 1 mps 615 mmHg 89%
    07:00 +14°C° 0 mm 2 mps 616 mmHg 80%
    08:00 +15°C° 0 mm 2 mps 617 mmHg 70%
    09:00 +17°C° 0 mm 3 mps 618 mmHg 61%
    10:00 +18°C° 0 mm 3 mps 618 mmHg 55%
    11:00 +19°C° 0 mm 3 mps 618 mmHg 50%
    12:00 +21°C° 0 mm 4 mps 619 mmHg 44%
    13:00 +20°C° 0.2 mm 4 mps 618 mmHg 48%
    14:00 +20°C° 0.2 mm 3 mps 618 mmHg 52%
    15:00 +19°C° 0.2 mm 3 mps 617 mmHg 56%
    16:00 +18°C° 1.2 mm 3 mps 617 mmHg 63%
    17:00 +17°C° 1.2 mm 2 mps 616 mmHg 70%
    18:00 +15°C° 1.2 mm 2 mps 616 mmHg 77%
    19:00 +14°C° 0.2 mm 1 mps 615 mmHg 82%
    20:00 +13°C° 0.2 mm 1 mps 615 mmHg 88%
    21:00 +11°C° 0.2 mm 1 mps 615 mmHg 94%
    22:00 +11°C° 0 mm 1 mps 614 mmHg 94%
    23:00 +11°C° 0 mm 1 mps 614 mmHg 94%

    Tomorrow, 24 July, Monday

    Time Temperature Precipitation Wind Pressure Humidity
    00:00 +10°C° 0 mm 1 mps 614 mmHg 95%
    01:00 +10°C° 0.1 mm 1 mps 614 mmHg 94%
    02:00 +10°C° 0.1 mm 1 mps 614 mmHg 94%
    03:00 +10°C° 0.1 mm 1 mps 613 mmHg 94%
    04:00 +9°C° 0.1 mm 2 mps 613 mmHg 92%
    05:00 +10°C° 0.1 mm 2 mps 613 mmHg 89%
    06:00 +10°C° 0.1 mm 2 mps 614 mmHg 87%
    07:00 +12°C° 0 mm 2 mps 614 mmHg 78%
    08:00 +13°C° 0 mm 3 mps 615 mmHg 70%
    09:00 +14°C° 0 mm 3 mps 616 mmHg 61%
    10:00 +16°C° 0 mm 3 mps 616 mmHg 56%
    11:00 +17°C° 0 mm 3 mps 616 mmHg 51%
    12:00 +18°C° 0 mm 4 mps 616 mmHg 46%
    13:00 +18°C° 0 mm 4 mps 616 mmHg 46%
    14:00 +18°C° 0 mm 4 mps 616 mmHg 46%
    15:00 +18°C° 0 mm 4 mps 616 mmHg 45%
    16:00 +17°C° 0 mm 4 mps 615 mmHg 50%
    17:00 +15°C° 0 mm 4 mps 615 mmHg 54%
    18:00 +13°C° 0 mm 4 mps 614 mmHg 58%
    19:00 +12°C° 0 mm 4 mps 614 mmHg 65%
    20:00 +10°C° 0 mm 3 mps 614 mmHg 72%
    21:00 +8°C° 0 mm 3 mps 613 mmHg 79%
    22:00 +7°C° 0 mm 3 mps 613 mmHg 78%
    23:00 +7°C° 0 mm 3 mps 613 mmHg 76%

    Day after tomorrow, 25 July, Tuesday

    Time Temperature Precipitation Wind Pressure Humidity
    00:00 +5°C° 0 mm 3 mps 612 mmHg 75%
    01:00 +5°C° 0 mm 3 mps 612 mmHg 74%
    02:00 +5°C° 0 mm 3 mps 612 mmHg 74%
    03:00 +4°C° 0 mm 3 mps 611 mmHg 73%
    04:00 +5°C° 0 mm 3 mps 611 mmHg 73%
    05:00 +5°C° 0 mm 3 mps 612 mmHg 72%
    06:00 +7°C° 0 mm 3 mps 612 mmHg 72%
    07:00 +9°C° 0 mm 3 mps 613 mmHg 65%
    08:00 +11°C° 0 mm 3 mps 613 mmHg 58%
    09:00 +13°C° 0 mm 3 mps 614 mmHg 51%
    10:00 +14°C° 0 mm 3 mps 614 mmHg 47%
    11:00 +15°C° 0 mm 4 mps 614 mmHg 44%
    12:00 +17°C° 0 mm 4 mps 615 mmHg 40%
    13:00 +17°C° 0 mm 4 mps 614 mmHg 40%
    14:00 +17°C° 0 mm 4 mps 614 mmHg 39%
    15:00 +17°C° 0 mm 4 mps 614 mmHg 38%
    16:00 +15°C° 0.1 mm 4 mps 613 mmHg 45%
    17:00 +14°C° 0.1 mm 4 mps 613 mmHg 51%
    18:00 +13°C° 0.1 mm 4 mps 612 mmHg 57%
    19:00 +11°C° 0.2 mm 3 mps 612 mmHg 66%
    20:00 +9°C° 0.2 mm 3 mps 612 mmHg 75%
    21:00 +7°C° 0.2 mm 3 mps 611 mmHg 84%
    22:00 +7°C° 0 mm 3 mps 611 mmHg 84%
    23:00 +7°C° 0 mm 3 mps 611 mmHg 84%

    26 July, Wednesday

    Time Temperature Precipitation Wind Pressure Humidity
    00:00 +7°C° 0 mm 3 mps 611 mmHg 84%
    01:00 +5°C° 0 mm 3 mps 611 mmHg 84%
    02:00 +4°C° 0 mm 3 mps 610 mmHg 83%
    03:00 +4°C° 0 mm 3 mps 610 mmHg 82%
    04:00 +4°C° 0 mm 3 mps 610 mmHg 77%
    05:00 +5°C° 0 mm 3 mps 610 mmHg 72%
    06:00 +5°C° 0 mm 3 mps 611 mmHg 67%
    07:00 +8°C° 0 mm 3 mps 612 mmHg 59%
    08:00 +11°C° 0 mm 3 mps 613 mmHg 51%
    09:00 +13°C° 0 mm 3 mps 614 mmHg 43%
    10:00 +14°C° 0 mm 3 mps 614 mmHg 40%
    11:00 +17°C° 0 mm 3 mps 614 mmHg 37%
    12:00 +18°C° 0 mm 3 mps 615 mmHg 34%
    13:00 +18°C° 0 mm 4 mps 615 mmHg 34%
    14:00 +18°C° 0 mm 4 mps 614 mmHg 34%
    15:00 +19°C° 0 mm 4 mps 614 mmHg 34%
    16:00 +18°C° 0 mm 3 mps 614 mmHg 39%
    17:00 +16°C° 0 mm 3 mps 613 mmHg 45%
    18:00 +14°C° 0 mm 3 mps 613 mmHg 50%
    19:00 +12°C° 0 mm 3 mps 613 mmHg 61%
    20:00 +10°C° 0 mm 2 mps 612 mmHg 71%
    21:00 +8°C° 0 mm 2 mps 612 mmHg 82%
    22:00 +8°C° 0 mm 2 mps 612 mmHg 82%
    23:00 +7°C° 0 mm 2 mps 612 mmHg 83%

    27 July, Thursday

    Time Temperature Precipitation Wind Pressure Humidity
    00:00 +7°C° 0 mm 2 mps 611 mmHg 84%
    01:00 +7°C° 0 mm 2 mps 611 mmHg 82%
    02:00 +7°C° 0 mm 2 mps 611 mmHg 81%
    03:00 +7°C° 0 mm 2 mps 611 mmHg 79%
    04:00 +7°C° 0 mm 2 mps 611 mmHg 76%
    05:00 +8°C° 0 mm 2 mps 612 mmHg 73%
    06:00 +10°C° 0 mm 1 mps 612 mmHg 70%
    07:00 +13°C° 0 mm 1 mps 614 mmHg 61%
    08:00 +15°C° 0 mm 1 mps 615 mmHg 51%
    09:00 +19°C° 0 mm 1 mps 616 mmHg 42%
    10:00 +20°C° 0 mm 1 mps 616 mmHg 40%
    11:00 +22°C° 0 mm 1 mps 616 mmHg 37%
    12:00 +23°C° 0 mm 2 mps 617 mmHg 35%
    13:00 +23°C° 0 mm 2 mps 617 mmHg 36%
    14:00 +23°C° 0 mm 2 mps 616 mmHg 36%
    15:00 +23°C° 0 mm 2 mps 616 mmHg 37%
    16:00 +21°C° 0 mm 2 mps 616 mmHg 42%
    17:00 +21°C° 0 mm 1 mps 616 mmHg 47%
    18:00 +20°C° 0 mm 1 mps 615 mmHg 53%
    19:00 +18°C° 0 mm 1 mps 615 mmHg 60%
    20:00 +15°C° 0 mm 1 mps 614 mmHg 68%
    21:00 +13°C° 0 mm 1 mps 614 mmHg 76%
    22:00 +12°C° 0 mm 1 mps 614 mmHg 76%
    23:00 +12°C° 0 mm 1 mps 614 mmHg 77%

    28 July, Friday

    Time Temperature Precipitation Wind Pressure Humidity
    00:00 +12°C° 0 mm 1 mps 614 mmHg 78%
    01:00 +12°C° 0 mm 1 mps 614 mmHg 78%
    02:00 +12°C° 0 mm 1 mps 614 mmHg 78%
    03:00 +11°C° 0 mm 1 mps 614 mmHg 78%
    04:00 +12°C° 0 mm 1 mps 614 mmHg 76%
    05:00 +13°C° 0 mm 1 mps 615 mmHg 74%
    06:00 +13°C° 0 mm 1 mps 615 mmHg 72%
    07:00 +16°C° 0 mm 1 mps 616 mmHg 64%
    08:00 +19°C° 0 mm 1 mps 617 mmHg 56%
    09:00 +22°C° 0 mm 1 mps 619 mmHg 48%
    10:00 +23°C° 0 mm 1 mps 619 mmHg 45%
    11:00 +24°C° 0 mm 2 mps 619 mmHg 43%
    12:00 +25°C° 0 mm 2 mps 619 mmHg 41%
    13:00 +24°C° 0.1 mm 2 mps 619 mmHg 42%
    14:00 +24°C° 0.1 mm 2 mps 619 mmHg 44%
    15:00 +24°C° 0.1 mm 2 mps 618 mmHg 46%
    16:00 +23°C° 0 mm 2 mps 618 mmHg 49%
    17:00 +21°C° 0 mm 2 mps 618 mmHg 52%
    18:00 +22°C° 0 mm 1 mps 618 mmHg 55%
    19:00 +20°C° 0 mm 1 mps 617 mmHg 64%
    20:00 +16°C° 0 mm 1 mps 617 mmHg 72%
    21:00 +14°C° 0 mm 1 mps 616 mmHg 81%
    22:00 +14°C° 0 mm 1 mps 616 mmHg 82%
    23:00 +13°C° 0 mm 1 mps 616 mmHg 82%
    Show more